UAL1149 KSFO-KEWR

Flight info

Callsign UAL1149
Flight time 4h 27m
Altitude 35000
Route SNTNA2 SYRAH Q128 EDLES KD54S MURFE KD54Y KD54A CATTS MCI KK57I SPI WWODD RINTE KLYNE Q29 WWSHR DORET J584 SLT FQM3
Aircraft B77W/H-SDE2E3FGHIJ5LORVWXY/LB1D1

Departure

Time 2026-04-30 14:29
Airport San Francisco International Airport (KSFO)

Arrival

Time 2026-04-30 18:56
Airport Newark Liberty International Airport (KEWR)
Time Latitude Longitude Altitude Speed Heading
2026-04-30 13:28 37.62113 -122.38840 38 ft 0 kts 208°
2026-04-30 14:15 37.62113 -122.38839 38 ft 0 kts 208°
2026-04-30 14:15 37.62116 -122.38837 38 ft 2 kts 208°
2026-04-30 14:15 37.62128 -122.38829 38 ft 2 kts 208°
2026-04-30 14:15 37.62142 -122.38820 38 ft 2 kts 208°
2026-04-30 14:16 37.62155 -122.38811 38 ft 2 kts 208°
2026-04-30 14:16 37.62168 -122.38802 37 ft 2 kts 199°
2026-04-30 14:16 37.62183 -122.38799 37 ft 2 kts 176°
2026-04-30 14:16 37.62197 -122.38802 37 ft 2 kts 159°
2026-04-30 14:17 37.62211 -122.38810 37 ft 2 kts 148°
2026-04-30 14:17 37.62223 -122.38821 37 ft 2 kts 135°
2026-04-30 14:17 37.62233 -122.38836 37 ft 2 kts 123°
2026-04-30 14:17 37.62237 -122.38847 37 ft 1 kts 116°
2026-04-30 14:18 37.62238 -122.38847 37 ft 0 kts 116°
2026-04-30 14:18 37.62237 -122.38847 37 ft 0 kts 116°
2026-04-30 14:21 37.62208 -122.38777 37 ft 11 kts 118°
2026-04-30 14:22 37.62159 -122.38662 38 ft 15 kts 118°
2026-04-30 14:22 37.62061 -122.38429 39 ft 17 kts 118°
2026-04-30 14:22 37.61998 -122.38277 39 ft 19 kts 118°
2026-04-30 14:23 37.61937 -122.38132 38 ft 18 kts 118°
2026-04-30 14:23 37.61891 -122.38020 37 ft 18 kts 117°
2026-04-30 14:24 37.61785 -122.37728 33 ft 18 kts 110°
2026-04-30 14:24 37.61740 -122.37574 31 ft 18 kts 114°
2026-04-30 14:25 37.61620 -122.37277 26 ft 19 kts 118°
2026-04-30 14:25 37.61497 -122.36983 22 ft 19 kts 120°
2026-04-30 14:26 37.61342 -122.36723 20 ft 17 kts 118°
2026-04-30 14:26 37.61285 -122.36588 20 ft 17 kts 118°
2026-04-30 14:26 37.61177 -122.36331 19 ft 15 kts 117°
2026-04-30 14:27 37.61126 -122.36208 19 ft 15 kts 118°
2026-04-30 14:27 37.61078 -122.36091 19 ft 14 kts 118°
2026-04-30 14:27 37.61052 -122.35973 18 ft 13 kts 73°
2026-04-30 14:28 37.61200 -122.35905 18 ft 12 kts 311°
2026-04-30 14:28 37.61241 -122.35998 18 ft 19 kts 298°
2026-04-30 14:28 37.61393 -122.36357 19 ft 84 kts 298°
2026-04-30 14:28 37.61793 -122.37302 31 ft 156 kts 297°
2026-04-30 14:29 37.62848 -122.39988 1409 ft 180 kts 298°
2026-04-30 14:29 37.63882 -122.42390 2274 ft 199 kts 300°
2026-04-30 14:30 37.66322 -122.48047 4134 ft 242 kts 301°
2026-04-30 14:31 37.68396 -122.51603 5283 ft 264 kts 330°
2026-04-30 14:31 37.71955 -122.52535 6826 ft 267 kts 359°
2026-04-30 14:31 37.73813 -122.52602 7573 ft 271 kts 359°
2026-04-30 14:32 37.77625 -122.52711 9102 ft 277 kts
2026-04-30 14:32 37.79472 -122.52122 9766 ft 281 kts 27°
2026-04-30 14:32 37.81023 -122.50596 10358 ft 290 kts 49°
2026-04-30 14:33 37.82095 -122.48341 10705 ft 310 kts 63°
2026-04-30 14:33 37.83776 -122.43057 11600 ft 344 kts 74°
2026-04-30 14:33 37.84211 -122.40031 12095 ft 360 kts 79°
2026-04-30 14:34 37.84594 -122.36829 12652 ft 375 kts 79°
2026-04-30 14:34 37.84986 -122.33523 13372 ft 385 kts 79°
2026-04-30 14:34 37.85383 -122.30182 14254 ft 391 kts 79°
2026-04-30 14:34 37.85791 -122.26754 15198 ft 398 kts 78°
2026-04-30 14:35 37.86485 -122.20919 16790 ft 408 kts 78°
2026-04-30 14:35 37.87044 -122.16199 17983 ft 417 kts 78°
2026-04-30 14:35 37.87474 -122.12572 18881 ft 423 kts 78°
2026-04-30 14:36 37.87913 -122.08856 19771 ft 429 kts 78°
2026-04-30 14:36 37.88351 -122.05130 20651 ft 434 kts 78°
2026-04-30 14:36 37.88795 -122.01351 21493 ft 440 kts 78°
2026-04-30 14:36 37.89248 -121.97485 22309 ft 446 kts 78°
2026-04-30 14:37 37.89700 -121.93617 23099 ft 452 kts 78°
2026-04-30 14:37 37.90164 -121.89629 23855 ft 458 kts 78°
2026-04-30 14:37 37.90624 -121.85669 24578 ft 463 kts 78°
2026-04-30 14:37 37.91095 -121.81599 25320 ft 469 kts 78°
2026-04-30 14:38 37.91563 -121.77543 26027 ft 475 kts 78°
2026-04-30 14:38 37.92042 -121.73373 26702 ft 481 kts 78°
2026-04-30 14:38 37.92521 -121.69194 27390 ft 486 kts 78°
2026-04-30 14:38 37.93008 -121.64932 28089 ft 491 kts 78°
2026-04-30 14:39 37.93497 -121.60638 28788 ft 496 kts 78°
2026-04-30 14:39 37.93987 -121.56323 29474 ft 500 kts 78°
2026-04-30 14:39 37.94482 -121.51945 30346 ft 500 kts 78°
2026-04-30 14:40 37.95446 -121.43354 32241 ft 494 kts 78°
2026-04-30 14:40 37.95926 -121.39066 33001 ft 492 kts 78°
2026-04-30 14:40 37.96405 -121.34776 33679 ft 492 kts 79°
2026-04-30 14:40 37.96887 -121.30441 34349 ft 492 kts 79°
2026-04-30 14:41 37.97365 -121.26128 34921 ft 493 kts 79°
2026-04-30 14:41 37.97835 -121.21877 35001 ft 494 kts 79°
2026-04-30 14:41 37.98786 -121.13216 35006 ft 488 kts 78°
2026-04-30 14:42 37.99908 -121.04572 35008 ft 489 kts 75°
2026-04-30 14:42 38.01260 -120.96103 35002 ft 487 kts 75°
2026-04-30 14:43 38.02585 -120.87672 35006 ft 487 kts 75°
2026-04-30 14:43 38.03900 -120.79198 35015 ft 486 kts 75°
2026-04-30 14:44 38.05199 -120.70739 35026 ft 488 kts 75°
2026-04-30 14:44 38.06493 -120.62254 35015 ft 489 kts 75°
2026-04-30 14:45 38.07772 -120.53809 35030 ft 489 kts 75°
2026-04-30 14:45 38.09047 -120.45343 35042 ft 488 kts 75°
2026-04-30 14:46 38.10320 -120.36845 35079 ft 488 kts 75°
2026-04-30 14:46 38.11366 -120.29826 35120 ft 489 kts 76°
2026-04-30 14:47 38.12836 -120.19911 35134 ft 488 kts 76°
2026-04-30 14:47 38.14082 -120.11455 35151 ft 488 kts 76°
2026-04-30 14:48 38.15324 -120.02991 35162 ft 489 kts 76°
2026-04-30 14:48 38.16569 -119.94456 35165 ft 489 kts 76°
2026-04-30 14:49 38.17798 -119.85986 35180 ft 490 kts 76°
2026-04-30 14:49 38.19019 -119.77525 35190 ft 490 kts 76°
2026-04-30 14:50 38.20845 -119.64785 35203 ft 490 kts 76°
2026-04-30 14:51 38.22655 -119.52064 35206 ft 489 kts 76°
2026-04-30 14:52 38.24450 -119.39338 35209 ft 490 kts 76°
2026-04-30 14:52 38.26240 -119.26547 35207 ft 491 kts 76°
2026-04-30 14:53 38.28015 -119.13756 35207 ft 491 kts 76°
2026-04-30 14:54 38.30370 -118.96616 35214 ft 490 kts 76°
2026-04-30 14:55 38.32111 -118.83818 35212 ft 490 kts 76°
2026-04-30 14:56 38.34407 -118.66779 35200 ft 491 kts 76°
2026-04-30 14:57 38.36121 -118.53928 35196 ft 492 kts 76°
2026-04-30 14:58 38.38386 -118.36775 35188 ft 493 kts 76°
2026-04-30 14:58 38.40064 -118.23932 35182 ft 493 kts 77°
2026-04-30 15:00 38.42841 -118.02428 35173 ft 492 kts 77°
2026-04-30 15:01 38.45032 -117.85232 35173 ft 493 kts 77°
2026-04-30 15:01 38.46660 -117.72326 35173 ft 494 kts 77°
2026-04-30 15:02 38.47742 -117.63676 35180 ft 495 kts 77°
2026-04-30 15:03 38.50421 -117.42030 35189 ft 495 kts 77°
2026-04-30 15:04 38.52494 -117.20140 35179 ft 500 kts 82°
2026-04-30 15:06 38.53633 -116.97997 35180 ft 502 kts 83°
2026-04-30 15:07 38.54512 -116.80264 35179 ft 501 kts 82°
2026-04-30 15:08 38.55365 -116.62492 35184 ft 500 kts 82°
2026-04-30 15:09 38.56390 -116.40334 35186 ft 503 kts 83°
2026-04-30 15:10 38.57187 -116.22453 35191 ft 503 kts 83°
2026-04-30 15:11 38.58324 -115.95782 35185 ft 504 kts 83°
2026-04-30 15:13 38.59230 -115.73447 35200 ft 506 kts 83°
2026-04-30 15:14 38.60431 -115.42060 35195 ft 510 kts 83°
2026-04-30 15:17 38.61863 -115.01336 35190 ft 512 kts 84°
2026-04-30 15:19 38.63022 -114.64986 35176 ft 514 kts 84°
2026-04-30 17:39 39.91071 -86.12665 35085 ft 559 kts 72°
2026-04-30 17:42 40.00328 -85.63783 35065 ft 554 kts 72°
2026-04-30 17:43 40.04846 -85.39351 35075 ft 553 kts 72°
2026-04-30 17:44 40.10186 -85.10057 35040 ft 554 kts 73°
2026-04-30 17:47 40.18017 -84.66253 35054 ft 552 kts 73°
2026-04-30 17:48 40.23999 -84.32077 35041 ft 553 kts 74°
2026-04-30 17:50 40.33859 -83.95115 35028 ft 531 kts 47°
2026-04-30 17:52 40.47094 -83.71877 35035 ft 531 kts 47°
2026-04-30 17:54 40.66772 -83.36752 35013 ft 530 kts 48°
2026-04-30 17:56 40.84654 -83.06002 34998 ft 527 kts 47°
2026-04-30 17:58 40.98109 -82.82944 35000 ft 529 kts 47°
2026-04-30 17:59 41.05841 -82.66436 34999 ft 540 kts 69°
2026-04-30 18:00 41.08511 -82.46761 35003 ft 544 kts 79°
2026-04-30 18:01 41.11338 -82.21995 34988 ft 544 kts 80°
2026-04-30 18:02 41.14655 -81.92298 35002 ft 545 kts 80°
2026-04-30 18:04 41.17907 -81.62461 35007 ft 543 kts 80°
2026-04-30 18:06 41.22106 -81.22789 35005 ft 543 kts 81°
2026-04-30 18:08 41.25663 -80.88100 34978 ft 542 kts 81°
2026-04-30 18:10 41.29589 -80.48516 34983 ft 539 kts 82°
2026-04-30 18:11 41.32906 -80.13929 34942 ft 538 kts 83°
2026-04-30 18:13 41.35204 -79.89280 34951 ft 538 kts 83°
2026-04-30 18:14 41.37445 -79.64658 34939 ft 538 kts 83°
2026-04-30 18:15 41.40061 -79.35145 34924 ft 536 kts 83°
2026-04-30 18:16 41.41763 -79.15459 34913 ft 536 kts 84°
2026-04-30 18:17 41.42601 -79.05605 34915 ft 535 kts 84°
2026-04-30 18:18 41.43837 -78.90904 34916 ft 535 kts 84°
2026-04-30 18:18 41.44654 -78.81052 34914 ft 536 kts 84°
2026-04-30 18:19 41.45466 -78.71160 34905 ft 535 kts 84°
2026-04-30 18:19 41.46266 -78.61306 34907 ft 535 kts 84°
2026-04-30 18:19 41.46653 -78.56512 34744 ft 523 kts 84°
2026-04-30 18:20 41.47040 -78.51681 34036 ft 525 kts 84°
2026-04-30 18:20 41.47424 -78.46859 33313 ft 529 kts 84°
2026-04-30 18:20 41.47814 -78.41937 32986 ft 537 kts 84°
2026-04-30 18:21 41.48594 -78.32005 32901 ft 540 kts 85°
2026-04-30 18:21 41.49369 -78.22038 32895 ft 539 kts 85°
2026-04-30 18:22 41.50113 -78.12365 32888 ft 539 kts 85°
2026-04-30 18:22 41.50994 -77.97437 32875 ft 537 kts 94°
2026-04-30 18:23 41.49954 -77.87638 32886 ft 535 kts 103°
2026-04-30 18:23 41.48584 -77.77930 32885 ft 534 kts 103°
2026-04-30 18:24 41.46503 -77.63344 32873 ft 535 kts 103°
2026-04-30 18:25 41.45112 -77.53662 32866 ft 534 kts 103°
2026-04-30 18:25 41.42997 -77.39069 32866 ft 534 kts 103°
2026-04-30 18:26 41.40876 -77.24561 32860 ft 535 kts 104°
2026-04-30 18:27 41.38723 -77.09974 32865 ft 535 kts 104°
2026-04-30 18:28 41.36564 -76.95471 32477 ft 525 kts 104°
2026-04-30 18:28 41.35858 -76.90767 31477 ft 532 kts 104°
2026-04-30 18:28 41.34394 -76.81049 29797 ft 533 kts 104°
2026-04-30 18:29 41.33500 -76.76333 29211 ft 524 kts 111°
2026-04-30 18:29 41.29969 -76.62902 27369 ft 508 kts 114°
2026-04-30 18:30 41.28011 -76.55590 26330 ft 501 kts 114°
2026-04-30 18:30 41.25308 -76.45532 24890 ft 491 kts 114°
2026-04-30 18:31 41.24159 -76.41267 24260 ft 487 kts 114°
2026-04-30 18:31 41.21890 -76.32870 23007 ft 478 kts 114°
2026-04-30 18:32 41.19674 -76.24702 21765 ft 469 kts 114°
2026-04-30 18:32 41.18560 -76.20602 21157 ft 464 kts 114°
2026-04-30 18:32 41.16402 -76.12685 19937 ft 455 kts 114°
2026-04-30 18:33 41.15330 -76.08762 19318 ft 450 kts 114°
2026-04-30 18:33 41.13244 -76.01134 18834 ft 422 kts 114°
2026-04-30 18:33 41.12263 -75.97557 18836 ft 408 kts 114°
2026-04-30 18:34 41.11292 -75.94030 18844 ft 406 kts 114°
2026-04-30 18:34 41.09357 -75.87019 18833 ft 408 kts 114°
2026-04-30 18:34 41.08372 -75.83453 18837 ft 407 kts 114°
2026-04-30 18:35 41.07397 -75.79932 18822 ft 403 kts 114°
2026-04-30 18:35 41.06452 -75.76510 18346 ft 397 kts 114°
2026-04-30 18:35 41.05495 -75.73062 17554 ft 398 kts 114°
2026-04-30 18:36 41.03615 -75.66295 16320 ft 387 kts 113°
2026-04-30 18:36 41.02702 -75.63012 15639 ft 379 kts 113°
2026-04-30 18:36 41.00897 -75.56542 14088 ft 369 kts 112°
2026-04-30 18:37 41.00026 -75.53423 13345 ft 363 kts 112°
2026-04-30 18:37 40.99159 -75.50318 13022 ft 359 kts 112°
2026-04-30 18:37 40.98295 -75.47232 12759 ft 348 kts 112°
2026-04-30 18:37 40.97463 -75.44263 11817 ft 352 kts 112°
2026-04-30 18:38 40.96617 -75.41253 11376 ft 348 kts 112°
2026-04-30 18:38 40.95782 -75.38277 11195 ft 337 kts 111°
2026-04-30 18:38 40.94973 -75.35397 10971 ft 329 kts 112°
2026-04-30 18:38 40.94186 -75.32598 10734 ft 321 kts 112°
2026-04-30 18:39 40.93417 -75.29871 10493 ft 314 kts 113°
2026-04-30 18:39 40.92663 -75.27198 10260 ft 307 kts 112°
2026-04-30 18:39 40.91916 -75.24554 10018 ft 301 kts 112°
2026-04-30 18:39 40.91186 -75.21972 9776 ft 296 kts 112°
2026-04-30 18:40 40.90478 -75.19469 9525 ft 292 kts 112°
2026-04-30 18:40 40.89771 -75.16974 9276 ft 289 kts 112°
2026-04-30 18:40 40.89056 -75.14452 9027 ft 289 kts 112°
2026-04-30 18:40 40.88353 -75.11975 8780 ft 288 kts 112°
2026-04-30 18:41 40.87651 -75.09499 8540 ft 286 kts 111°
2026-04-30 18:41 40.86966 -75.07063 8319 ft 286 kts 111°
2026-04-30 18:41 40.86266 -75.04581 8093 ft 284 kts 111°
2026-04-30 18:41 40.85582 -75.02142 7866 ft 282 kts 111°
2026-04-30 18:42 40.84913 -74.99738 7642 ft 281 kts 111°
2026-04-30 18:42 40.83558 -74.94906 7192 ft 278 kts 111°
2026-04-30 18:42 40.82882 -74.92522 7003 ft 276 kts 110°
2026-04-30 18:45 40.85690 -74.67615 6967 ft 276 kts 77°
2026-04-30 18:45 40.86060 -74.65118 6970 ft 277 kts 77°
2026-04-30 18:45 40.86430 -74.62623 6968 ft 277 kts 77°
2026-04-30 18:46 40.86802 -74.60118 6969 ft 277 kts 77°
2026-04-30 18:46 40.87172 -74.57632 6969 ft 277 kts 77°
2026-04-30 18:46 40.87541 -74.55142 6970 ft 277 kts 77°
2026-04-30 18:46 40.87912 -74.52638 6971 ft 277 kts 77°
2026-04-30 18:47 40.88280 -74.50133 6935 ft 279 kts 77°
2026-04-30 18:47 40.88650 -74.47617 6708 ft 278 kts 77°
2026-04-30 18:47 40.89012 -74.45145 6463 ft 274 kts 77°
2026-04-30 18:47 40.89370 -74.42680 6215 ft 272 kts 77°
2026-04-30 18:48 40.89727 -74.40205 5966 ft 272 kts 77°
2026-04-30 18:48 40.90078 -74.37759 5717 ft 271 kts 77°
2026-04-30 18:48 40.90423 -74.35349 5470 ft 268 kts 77°
2026-04-30 18:48 40.90768 -74.32917 5217 ft 266 kts 78°
2026-04-30 18:49 40.91106 -74.30517 4966 ft 265 kts 78°
2026-04-30 18:49 40.91437 -74.28140 4716 ft 264 kts 78°
2026-04-30 18:49 40.91769 -74.25764 4464 ft 262 kts 77°
2026-04-30 18:49 40.92096 -74.23389 4214 ft 260 kts 78°
2026-04-30 18:50 40.92412 -74.21077 4065 ft 253 kts 78°
2026-04-30 18:50 40.92719 -74.18813 3937 ft 246 kts 78°
2026-04-30 18:50 40.93021 -74.16605 3810 ft 239 kts 78°
2026-04-30 18:50 40.93042 -74.14443 3660 ft 235 kts 104°
2026-04-30 18:51 40.92385 -74.12498 3529 ft 230 kts 117°
2026-04-30 18:51 40.91612 -74.10635 3404 ft 230 kts 117°
2026-04-30 18:51 40.90837 -74.08807 3275 ft 230 kts 122°
2026-04-30 18:51 40.89674 -74.07378 3123 ft 230 kts 153°
2026-04-30 18:52 40.88221 -74.06511 3002 ft 231 kts 158°
2026-04-30 18:52 40.86668 -74.06057 2967 ft 227 kts 176°
2026-04-30 18:52 40.85084 -74.06158 2950 ft 220 kts 201°
2026-04-30 18:52 40.83808 -74.07111 2958 ft 205 kts 216°
2026-04-30 18:53 40.82597 -74.08048 2825 ft 198 kts 210°
2026-04-30 18:53 40.81366 -74.08822 2572 ft 196 kts 207°
2026-04-30 18:53 40.80167 -74.09560 2316 ft 186 kts 208°
2026-04-30 18:53 40.79029 -74.10276 2075 ft 176 kts 208°
2026-04-30 18:54 40.77948 -74.10961 1843 ft 171 kts 208°
2026-04-30 18:54 40.76866 -74.11649 1606 ft 168 kts 208°
2026-04-30 18:54 40.75820 -74.12312 1374 ft 163 kts 208°
2026-04-30 18:54 40.74817 -74.12948 1151 ft 156 kts 208°
2026-04-30 18:55 40.73877 -74.13545 947 ft 145 kts 208°
2026-04-30 18:55 40.72077 -74.14680 551 ft 141 kts 207°
2026-04-30 18:55 40.71189 -74.15252 347 ft 140 kts 207°
2026-04-30 18:56 40.69444 -74.16356 23 ft 134 kts 206°
2026-04-30 18:56 40.68721 -74.16818 22 ft 85 kts 206°
2026-04-30 18:56 40.68406 -74.17017 22 ft 37 kts 206°
2026-04-30 18:57 40.68057 -74.17244 22 ft 19 kts 214°
2026-04-30 18:57 40.67974 -74.17374 23 ft 18 kts 246°
2026-04-30 18:57 40.67962 -74.17536 23 ft 17 kts 282°
2026-04-30 18:58 40.68057 -74.17825 23 ft 10 kts 297°
2026-04-30 18:58 40.68111 -74.17863 23 ft 9 kts 21°
2026-04-30 18:58 40.68211 -74.17800 22 ft 22 kts 26°
2026-04-30 18:59 40.68483 -74.17626 22 ft 21 kts 26°
2026-04-30 19:00 40.68866 -74.17386 22 ft 19 kts 25°
2026-04-30 19:00 40.68987 -74.17310 22 ft 19 kts 25°
2026-04-30 19:00 40.69221 -74.17162 22 ft 18 kts 26°
2026-04-30 19:01 40.69456 -74.17075 22 ft 17 kts 358°
2026-04-30 19:01 40.69576 -74.17100 22 ft 17 kts 348°
2026-04-30 19:02 40.69778 -74.17254 22 ft 16 kts 317°
2026-04-30 19:02 40.69897 -74.17509 22 ft 16 kts 283°
2026-04-30 19:03 40.69983 -74.17777 22 ft 13 kts 283°
2026-04-30 19:03 40.69980 -74.17944 22 ft 6 kts 203°
2026-04-30 19:04 40.69926 -74.17953 22 ft 0 kts 184°
2026-04-30 19:04 40.69923 -74.17954 22 ft 0 kts 184°